Theta_e
310 310 310 310 310 310 310 310 310 310 310 310 310 310 310 310 311 311 311 312 312 312 312 313 313 313 312 313 312 312 312 313 313 313 314 314 315 315 314 314 314 314 314 314 314 314 315 315 316 317 316 318 318 320 321 320 320 320 323 323 322 322 321 321 319 320 319 318 317 317 318 317 317 318 318 318 318 318 317 317 317 318 318 318 318 318 318 318
310 310 310 310 310 310 310 310 310 310 310 310 310 310 310 310 311 311 311 311 311 312 312 312 312 312 312 312 312 312 313 313 313 314 315 315 314 314 314 314 314 314 314 314 314 314 316 316 317 317 317 318 319 320 321 321 320 321 323 322 321 322 321 320 319 319 319 319 317 317 317 317 317 317 317 317 317 317 317 317 317 317 317 318 318 319 319 319
310 310 310 310 310 310 310 310 310 310 311 310 311 311 311 311 311 311 311 311 311 311 312 312 312 312 312 312 312 313 314 314 315 317 316 314 314 314 314 314 314 314 314 314 315 315 316 316 317 317 317 318 319 320 321 321 321 321 321 321 321 320 319 319 318 318 319 319 318 318 317 317 316 317 317 317 317 317 317 317 317 317 318 318 317 318 319 319
310 310 310 310 310 310 310 310 310 311 311 311 311 311 311 311 311 311 311 311 311 312 312 312 312 312 312 312 313 313 314 315 317 317 315 314 314 315 315 314 314 314 314 314 315 315 316 316 316 317 317 317 318 320 320 321 321 320 320 320 320 319 318 318 317 317 318 318 318 318 317 316 316 317 317 317 317 317 317 316 316 316 317 317 316 316 317 318
310 309 310 310 310 310 310 310 310 310 311 311 311 311 311 311 311 311 312 312 312 312 312 312 312 312 313 313 313 313 314 316 317 316 314 314 315 315 315 315 315 314 314 314 314 315 315 315 315 316 316 316 317 318 319 319 320 319 319 319 319 319 318 317 317 318 318 318 318 318 317 317 316 316 317 317 317 317 316 317 317 317 317 317 317 316 317 316
310 309 310 309 310 310 310 310 310 310 310 310 311 311 311 311 311 311 312 312 312 312 313 313 313 313 313 313 314 313 314 316 317 317 316 315 316 315 315 315 315 314 314 314 314 314 315 315 315 316 316 316 317 316 317 318 319 319 319 319 318 318 317 317 317 317 318 318 318 318 317 317 316 316 316 317 317 317 317 317 317 317 317 317 317 317 317 317
310 310 310 309 310 310 309 310 310 310 310 311 311 311 311 311 312 312 312 313 313 313 313 313 313 314 313 313 313 313 314 315 316 317 316 316 316 315 315 315 314 314 314 314 314 315 315 315 316 316 316 316 316 316 316 317 317 318 319 319 318 318 317 316 316 317 318 318 317 317 317 317 316 316 315 316 316 316 316 316 317 317 317 317 318 317 317 317
309 309 309 309 310 310 310 310 311 311 311 311 312 312 312 312 313 313 313 313 313 313 313 314 314 314 314 314 314 315 316 316 316 316 316 316 315 315 315 314 314 314 314 314 315 315 316 316 316 316 316 316 316 316 316 317 317 317 317 318 318 318 317 317 317 317 317 317 317 317 317 316 316 316 316 316 316 316 316 316 316 316 316 317 317 317 317 317
309 310 310 310 311 311 311 311 311 311 312 312 312 313 313 313 314 314 315 315 315 315 316 317 317 318 318 317 317 316 317 318 317 317 316 315 315 315 315 315 315 314 314 315 315 315 316 316 316 316 316 316 316 316 316 316 316 316 316 316 316 316 316 316 316 315 316 316 316 317 317 316 316 316 316 316 316 316 316 316 316 316 316 316 317 316 316 316
310 311 311 311 311 311 311 312 312 313 313 314 315 315 316 316 317 318 318 318 318 319 319 319 319 319 318 319 319 318 319 319 318 317 316 315 315 315 314 314 314 314 314 315 315 316 316 316 316 316 316 316 316 316 316 316 316 316 316 315 315 315 315 315 315 315 315 315 315 316 317 316 316 316 316 316 316 316 316 316 316 316 317 316 316 316 316 316
311 311 312 312 313 314 315 315 316 317 318 318 318 319 318 318 318 318 318 318 317 317 316 315 315 315 314 314 317 319 320 320 319 318 318 317 317 317 316 315 314 314 314 315 316 316 316 316 316 316 316 316 315 315 316 315 316 315 315 314 314 314 315 315 315 315 315 315 315 315 316 316 316 316 315 316 316 316 316 316 316 316 316 316 316 316 315 316
313 313 314 315 316 317 318 318 318 319 318 318 317 316 316 315 314 314 314 313 313 313 313 312 312 311 311 311 314 317 319 319 319 319 318 318 318 319 318 316 314 314 314 316 317 316 316 316 316 316 316 315 315 315 315 314 315 314 314 314 314 314 314 315 315 315 315 316 316 315 315 316 315 316 316 316 317 317 316 316 317 317 316 316 316 316 316 316
316 316 317 318 318 318 317 317 316 315 314 313 313 312 312 311 311 311 311 311 311 311 311 311 311 310 309 311 313 314 315 315 316 316 316 316 316 317 317 316 314 314 314 315 316 317 317 316 315 315 315 315 315 315 314 314 314 314 314 314 314 314 315 316 316 317 316 315 316 315 316 317 316 316 317 317 317 317 317 316 316 316 316 316 316 316 316 316
317 317 318 317 316 315 313 312 312 311 310 310 310 310 310 310 311 312 312 313 313 314 314 315 314 312 309 311 314 314 314 314 314 314 314 314 315 315 316 315 314 314 314 314 315 316 316 316 315 315 315 315 315 315 314 314 314 314 314 315 315 315 316 317 317 317 316 315 314 315 315 316 316 316 317 318 318 317 317 316 316 316 316 316 316 316 316 316
316 315 314 313 312 311 310 309 309 309 309 309 311 312 314 315 316 317 317 318 318 318 318 318 317 314 312 314 315 315 315 314 314 314 314 315 315 316 316 316 315 314 314 314 314 314 315 315 315 314 315 315 314 314 314 314 315 315 315 316 317 317 317 318 318 316 315 314 313 314 316 315 315 317 318 318 318 317 316 316 316 316 316 316 316 316 316 316
313 312 311 310 310 309 309 309 310 311 312 314 316 318 319 320 321 321 321 320 320 320 319 319 317 315 314 315 316 316 316 315 315 315 315 315 315 315 316 315 315 314 313 313 313 313 314 314 314 314 314 314 314 315 315 316 316 316 316 317 318 319 317 319 320 317 315 314 313 314 316 316 316 317 317 317 316 316 316 315 316 316 316 316 316 316 316 316
311 311 311 312 312 312 312 313 315 316 318 320 321 322 322 323 323 323 322 322 321 320 318 318 317 315 314 316 316 317 316 315 315 315 315 315 315 315 315 315 314 314 313 313 313 313 313 313 314 314 314 314 314 315 317 318 318 319 319 318 319 320 318 319 320 318 315 315 315 314 314 315 316 315 315 316 316 315 315 315 316 316 316 316 316 316 316 316
313 314 315 316 316 317 317 318 319 320 321 322 322 323 324 324 324 323 323 322 320 319 317 315 315 316 318 317 317 317 316 316 315 315 315 315 315 315 315 315 314 314 313 313 312 313 313 313 313 315 315 314 313 315 317 318 319 319 320 319 319 319 319 318 319 318 317 317 317 316 315 315 315 315 315 316 317 316 316 316 316 316 316 316 316 316 316 317
317 318 319 320 320 320 321 321 322 322 323 323 324 324 324 323 324 323 321 319 318 319 319 317 316 318 320 319 319 319 318 318 317 318 318 318 317 316 315 314 314 313 313 314 314 313 313 314 315 317 316 315 315 315 316 317 317 318 319 319 318 318 318 318 318 318 318 318 318 318 317 317 317 317 316 316 316 316 316 316 316 316 316 316 316 316 317 317
320 322 322 323 323 323 324 324 324 324 324 325 324 324 324 323 324 323 320 319 319 321 322 321 320 321 321 321 322 322 321 321 320 319 320 319 318 316 315 314 314 313 314 316 316 313 313 316 317 317 316 315 316 316 316 317 317 318 318 318 319 318 318 318 318 318 318 318 318 319 318 317 317 317 316 316 316 315 315 315 315 315 316 316 317 317 317 316
323 323 324 324 325 325 325 325 325 325 325 324 324 323 323 323 323 323 321 321 322 322 322 323 322 323 323 323 323 323 322 321 320 319 318 317 316 315 314 314 314 314 315 316 317 315 314 317 317 317 316 316 317 318 317 318 318 318 318 318 318 318 318 317 318 318 317 318 318 318 318 317 316 316 315 315 316 315 315 315 315 315 316 317 318 317 316 314
324 324 325 325 325 325 325 324 324 325 324 324 323 323 323 322 322 321 319 319 321 322 322 322 322 322 322 322 322 322 322 320 319 318 317 316 315 315 315 314 315 316 316 316 317 317 317 317 317 316 316 317 317 317 317 318 319 318 318 318 318 318 318 317 318 318 317 318 318 317 317 316 316 316 316 315 315 315 315 316 316 316 316 318 317 316 314 313
324 324 324 325 325 325 324 324 323 324 323 323 323 323 323 322 320 319 317 316 318 321 321 320 321 321 321 321 321 321 319 319 319 318 317 316 314 315 316 315 315 317 317 317 318 319 319 318 317 316 316 317 317 317 318 318 318 319 319 318 318 318 319 318 318 319 317 317 317 317 317 317 316 316 316 316 316 316 317 317 316 317 317 316 315 314 313 312
324 324 324 324 324 324 324 323 323 323 323 323 324 323 323 322 320 318 316 316 318 319 319 320 320 320 320 320 319 318 318 318 319 318 317 317 314 315 316 316 316 317 318 317 317 319 319 319 318 317 317 317 317 317 318 318 318 320 320 320 319 319 319 319 318 318 317 317 318 318 318 318 318 318 318 318 318 317 317 317 317 318 316 314 313 312 311 310
324 325 325 325 325 325 323 323 323 323 323 324 324 323 323 322 320 317 315 317 319 319 320 319 319 319 318 318 317 317 316 317 318 316 316 316 315 315 316 317 317 317 318 319 318 318 318 318 318 319 318 319 319 318 319 319 319 319 321 322 320 319 320 320 320 319 319 319 318 319 320 320 320 319 320 319 319 318 317 316 316 316 315 313 313 312 310 309
325 325 325 325 325 325 323 323 324 323 324 324 324 323 323 321 319 316 315 318 321 321 321 319 317 316 314 314 315 315 317 316 315 315 315 315 315 315 315 317 317 317 317 317 318 319 318 317 319 321 319 320 321 319 318 319 318 318 321 324 322 320 321 321 321 321 320 319 317 318 319 319 318 318 319 319 319 319 317 315 314 313 313 313 312 311 309 308
326 326 325 326 326 324 323 324 324 324 324 325 324 323 322 321 318 316 317 322 325 323 319 316 316 315 312 312 313 315 318 315 313 313 314 314 315 314 315 316 317 317 315 316 320 320 318 318 320 320 318 320 321 319 319 319 319 320 321 322 321 319 320 320 319 320 319 318 317 317 318 319 318 318 318 318 319 319 315 313 312 312 312 311 309 308 307 306
325 325 325 325 325 323 321 322 323 324 324 324 323 323 322 320 318 316 319 324 326 320 316 313 313 313 311 311 312 313 314 312 313 313 312 314 314 312 314 316 316 316 314 316 320 319 317 319 321 319 319 320 319 318 320 320 319 321 319 317 318 317 317 317 317 318 318 317 318 320 319 320 321 320 318 319 320 318 314 312 312 311 311 309 307 307 305 305
324 323 324 323 323 322 321 321 323 323 323 322 322 322 320 319 318 316 319 323 323 318 316 313 312 312 311 311 312 312 310 310 312 312 311 313 313 311 313 314 313 314 314 315 318 318 317 316 317 318 319 318 317 319 323 322 320 319 317 317 317 317 318 317 317 317 317 317 319 321 320 321 324 322 318 320 319 316 313 312 311 310 309 308 306 305 304 304
321 321 322 322 321 321 321 321 321 322 322 321 321 320 319 319 318 319 322 322 320 318 315 312 313 313 312 312 313 312 311 311 311 311 311 312 313 312 312 312 311 313 315 315 317 317 315 312 312 316 317 316 317 318 319 321 319 315 316 318 318 319 319 318 318 316 318 320 321 321 319 319 324 325 319 318 318 315 312 311 310 309 307 306 305 304 303 303
319 319 320 319 319 320 319 319 320 320 320 320 320 319 320 320 319 321 324 321 318 319 316 314 314 313 312 314 315 313 311 312 311 311 312 311 312 311 311 313 312 313 316 316 317 317 315 314 314 315 314 314 318 318 315 316 315 314 316 316 317 321 319 317 318 316 318 323 323 321 320 319 323 324 318 316 315 314 312 311 309 307 306 304 304 303 302 302
316 317 317 317 318 318 318 318 319 319 319 319 319 318 320 321 320 322 322 318 319 322 319 317 316 314 314 316 317 315 314 314 312 311 313 313 313 313 313 315 316 318 320 320 320 320 320 318 316 315 313 313 317 317 315 315 314 314 315 314 318 322 320 319 321 321 322 324 320 320 321 320 321 322 317 315 312 312 311 310 308 306 305 304 302 301 301 301
314 314 315 316 317 317 317 317 317 318 318 319 319 318 318 320 321 322 321 320 322 322 319 318 316 315 315 316 318 318 317 316 313 312 314 316 316 316 316 316 317 321 322 321 322 322 323 321 317 317 316 314 316 317 319 319 316 314 316 318 320 321 319 319 320 321 322 321 319 319 319 321 322 319 316 312 309 309 308 307 306 305 304 303 302 301 301 302
312 312 312 313 314 315 315 315 316 317 317 318 319 318 318 319 320 320 321 321 321 320 319 317 316 316 316 317 319 319 319 319 315 313 315 317 317 319 319 317 317 320 319 320 320 321 322 322 319 320 318 315 315 316 319 321 317 314 317 321 322 320 320 319 319 319 320 320 319 318 319 322 322 317 311 308 307 307 306 305 305 304 303 302 301 301 301 302
309 309 309 310 310 311 311 312 314 315 317 319 320 320 319 319 319 319 320 319 319 319 318 317 317 318 318 318 318 317 319 319 316 316 317 317 318 320 320 318 317 318 318 320 321 320 321 321 319 317 315 314 315 316 317 319 319 317 318 321 321 321 320 319 320 320 320 321 320 319 322 321 318 314 309 307 307 305 305 305 304 303 302 301 301 300 300 301
308 307 308 308 308 308 308 310 311 313 317 319 319 319 318 318 318 319 319 318 317 318 318 319 320 320 320 319 319 318 318 317 317 318 318 318 319 319 319 318 318 318 318 320 321 320 320 321 319 316 314 313 312 313 315 316 318 319 320 321 319 318 319 319 321 320 319 320 319 318 320 318 317 316 310 307 307 305 305 304 303 303 302 301 301 300 300 301
306 306 306 306 306 306 307 308 309 313 317 318 318 317 317 317 317 317 317 317 316 317 318 320 320 320 320 319 319 319 318 318 318 318 319 319 319 319 318 317 316 316 316 317 319 321 320 320 319 318 318 314 309 310 313 312 315 318 320 318 316 317 319 318 318 319 319 320 318 316 318 316 317 318 311 308 307 306 305 305 304 303 303 302 301 300 300 300
304 304 303 305 305 304 305 307 309 313 317 318 317 317 316 316 316 316 317 316 316 317 318 319 318 317 318 317 317 317 319 319 319 319 319 319 319 319 319 317 314 313 312 313 316 319 319 319 318 318 318 315 309 312 316 313 312 315 315 314 314 317 319 317 317 318 319 318 318 318 318 316 316 317 315 311 308 306 306 305 304 304 303 302 301 301 300 300
303 302 302 305 305 304 304 306 309 314 317 317 316 316 315 315 316 315 316 316 316 317 317 317 317 316 317 317 316 317 318 319 319 319 319 319 319 317 317 316 315 312 312 313 316 318 318 319 319 317 317 316 314 315 318 316 312 312 312 312 313 315 316 317 317 318 319 318 318 318 318 318 318 317 316 312 308 307 307 306 305 304 303 303 302 301 300 299
301 302 305 307 305 304 303 305 310 315 316 315 314 314 314 315 316 315 315 316 316 316 316 317 317 316 316 316 316 316 317 319 319 319 319 319 318 317 316 317 317 314 312 314 317 319 318 319 319 317 317 318 318 317 317 317 316 314 312 312 314 314 314 315 315 317 318 317 318 318 318 319 317 313 312 310 308 308 308 307 306 303 302 302 302 301 300 300
300 303 307 308 306 304 304 307 312 315 315 314 313 314 314 314 316 316 316 315 316 316 316 317 317 317 317 317 317 316 317 319 319 319 319 318 317 318 316 316 317 316 314 315 317 318 317 318 318 317 317 317 317 316 316 317 318 317 314 313 314 315 315 315 315 316 317 316 317 317 316 317 313 309 309 309 309 308 307 306 305 303 303 302 302 302 301 300
301 304 308 308 306 305 306 309 311 312 314 314 313 313 314 314 315 316 316 315 316 316 316 316 317 317 317 317 317 317 318 319 318 318 318 318 317 317 314 312 314 315 315 316 317 316 315 316 316 315 315 314 314 314 314 315 316 316 316 316 315 315 315 315 315 316 316 316 315 315 316 316 312 309 309 308 308 307 306 305 304 303 302 302 301 301 300 300
303 306 308 308 307 306 307 309 310 311 313 313 313 313 314 314 315 315 315 315 315 316 316 316 316 316 316 316 316 316 316 317 317 317 317 317 315 312 311 311 313 313 314 316 316 314 313 314 314 314 314 313 314 314 313 314 315 316 316 316 316 315 314 314 314 313 313 314 315 315 316 315 312 310 308 307 306 306 306 305 304 303 302 301 300 299 299 298
304 306 308 307 307 308 309 309 309 311 311 311 312 313 313 313 314 314 315 315 315 315 314 315 315 314 315 315 315 315 315 315 316 315 316 316 313 309 308 310 311 311 312 313 313 312 312 313 314 313 313 313 312 312 312 314 315 314 314 313 313 313 313 313 313 312 312 313 314 314 315 314 312 310 308 307 306 305 304 303 303 302 301 300 299 298 298 297
303 304 306 307 307 309 310 309 309 310 310 311 311 312 312 312 313 313 314 313 313 313 313 313 313 313 314 314 314 314 314 314 314 314 314 315 312 308 307 309 310 309 308 308 309 310 312 312 313 312 312 311 310 311 312 313 312 311 312 312 311 312 312 312 312 312 313 313 312 312 312 312 310 308 307 306 307 306 303 302 302 301 300 299 298 298 297 297
302 302 305 307 308 308 309 309 309 310 311 311 311 311 311 311 311 312 312 313 313 312 312 313 312 312 313 314 313 313 313 313 314 314 314 314 313 309 307 308 308 307 306 306 307 309 310 310 311 311 311 310 310 310 311 311 310 309 310 311 311 311 311 311 310 310 311 310 310 310 310 309 308 307 306 306 308 308 305 302 300 300 299 298 298 297 297 296
300 301 305 307 307 308 308 309 309 309 311 311 311 311 311 311 311 311 312 313 312 311 312 312 312 312 312 312 312 312 312 313 313 313 312 312 312 309 306 306 306 305 305 305 306 307 308 308 309 309 309 310 310 309 309 309 308 308 308 309 309 309 309 309 309 309 309 309 308 308 308 307 307 306 306 306 307 307 304 300 299 299 298 298 298 297 296 296
299 300 304 306 306 307 308 309 309 309 310 311 310 311 311 311 311 311 312 312 311 311 312 311 311 312 312 312 312 311 311 311 311 311 312 311 310 308 307 307 305 304 305 305 305 306 307 306 306 306 306 307 307 307 307 307 306 306 306 306 306 306 306 306 306 306 307 307 306 306 306 306 306 305 306 305 304 303 300 299 299 298 297 297 296 296 295 295
299 299 300 303 304 305 307 308 308 308 309 309 310 310 310 311 311 310 311 311 310 311 311 311 310 311 311 311 311 311 311 310 310 311 311 309 308 307 307 307 305 303 303 305 305 305 306 305 305 305 305 305 306 305 305 305 305 305 305 305 305 305 305 305 305 305 305 305 305 305 305 305 304 304 304 302 300 300 299 298 298 297 296 295 294 294 293 293
299 299 299 301 302 302 303 305 307 308 308 309 309 309 308 309 309 309 309 310 310 310 311 311 310 309 308 308 309 309 309 309 308 309 308 306 306 305 306 306 304 303 303 304 305 305 305 304 304 304 305 304 304 304 304 304 304 303 303 303 303 303 303 303 303 303 303 303 303 303 303 303 303 302 301 299 298 297 296 296 295 295 294 293 293 293 293 293
297 298 299 299 301 301 301 302 305 307 307 307 308 307 307 308 308 308 308 309 308 309 309 309 308 307 306 307 307 306 306 306 305 305 304 303 303 303 304 304 304 304 304 304 305 305 304 303 303 304 304 303 303 303 302 301 301 300 300 300 300 300 300 301 301 301 301 302 302 302 302 302 302 300 299 297 295 295 294 294 294 293 293 293 293 293 292 292
296 297 297 298 300 301 301 301 304 306 306 306 306 306 306 307 307 307 308 307 305 305 306 307 307 306 305 306 305 304 303 303 302 302 301 301 301 301 301 301 301 302 303 303 303 304 303 303 303 303 303 302 302 302 299 299 299 299 300 299 299 299 300 300 300 301 301 301 301 301 301 301 300 299 298 296 293 293 293 293 293 293 292 293 293 293 293 293
Wind_Speed
4 3 3 3 3 3 3 4 4 3 3 3 3 3 2 2 2 2 3 3 4 4 5 5 6 7 8 9 10 11 13 14 16 18 20 17 11 10 6 2 4 5 5 5 6 5 5 4 3 4 3 5 5 5 7 6 5 3 1 3 4 4 5 4 5 6 5 5 6 6 8 7 6 5 5 6 8 13 17 19 19 18 20 24 25 22 22 20
4 3 3 3 3 3 3 3 3 3 3 3 3 3 3 3 4 4 4 5 5 6 7 7 8 8 9 10 11 13 15 16 19 19 16 10 3 2 2 1 5 5 6 5 4 3 4 3 5 6 5 6 6 6 7 6 6 6 2 3 4 4 6 8 9 8 7 6 9 12 12 10 8 11 10 6 8 12 14 17 19 19 19 21 22 22 24 22
4 4 4 3 3 3 3 3 3 3 3 3 3 3 4 4 4 5 5 6 6 7 8 9 9 9 10 11 12 13 15 19 19 13 5 1 6 5 2 6 9 7 5 5 4 3 5 5 5 7 7 8 8 6 6 5 6 9 6 3 5 6 8 11 13 12 12 11 10 9 11 12 14 15 12 8 9 10 12 15 16 17 17 17 17 16 18 20
5 5 5 4 4 4 4 4 4 5 4 4 5 5 5 5 6 6 6 7 8 8 9 10 10 11 11 12 13 13 16 18 10 2 2 5 4 4 9 12 13 8 4 5 4 5 6 8 5 6 8 9 11 9 7 8 6 7 7 4 6 7 8 12 17 17 15 11 7 9 13 14 16 14 10 9 8 7 12 19 19 19 19 20 21 19 18 18
6 6 6 6 6 6 6 6 6 6 6 6 7 7 7 7 7 8 8 9 9 10 10 11 12 12 13 13 14 14 14 9 0 2 3 3 6 13 13 14 14 9 5 6 5 6 7 8 6 7 8 7 10 9 8 13 11 5 7 9 11 10 8 13 18 16 12 9 8 10 11 14 16 13 12 10 8 9 16 23 25 25 26 25 25 24 23 22
7 7 7 7 7 7 7 8 8 8 8 8 8 9 9 9 9 10 10 11 11 12 13 13 14 15 15 15 15 14 9 4 3 4 5 10 16 17 15 15 13 8 5 6 5 5 6 6 7 9 9 7 8 8 9 15 13 7 7 12 14 14 12 16 19 15 11 9 9 11 13 18 17 14 17 16 16 20 25 28 29 30 30 28 26 25 25 23
9 8 8 8 8 9 9 9 9 9 10 10 10 11 11 11 12 12 13 13 14 14 15 16 17 17 17 16 16 14 9 12 15 14 14 18 18 16 14 12 9 5 5 7 6 5 5 6 9 10 8 7 8 9 11 13 12 8 6 9 15 18 18 20 19 16 13 10 13 15 16 18 15 14 18 20 22 27 30 31 31 31 31 29 26 25 25 25
10 10 10 10 10 10 11 11 11 11 12 12 12 13 13 14 14 15 15 16 16 16 17 17 18 18 17 17 15 12 11 16 19 17 16 15 12 11 9 8 7 6 6 8 7 6 6 8 10 11 7 7 9 10 11 10 8 9 7 9 14 16 17 18 18 18 16 16 18 15 15 19 20 19 20 24 28 30 30 30 29 28 28 26 25 24 24 24
11 11 11 12 12 12 12 12 12 12 13 13 14 15 15 16 16 16 17 17 18 18 18 17 18 18 17 17 12 9 13 15 14 15 14 10 9 9 9 9 8 7 8 9 8 8 8 9 9 8 6 9 11 10 12 9 5 6 7 10 13 13 16 18 20 22 21 21 17 11 13 21 22 18 17 23 25 24 23 21 21 22 22 21 21 22 23 24
12 12 12 12 12 12 12 13 13 13 14 15 15 16 17 17 17 18 18 18 18 18 18 17 18 17 16 16 9 6 12 12 10 12 12 11 12 12 12 12 10 9 9 10 9 9 10 10 10 10 10 10 9 10 11 9 7 8 11 14 16 17 20 21 22 26 25 22 20 12 10 19 20 10 10 21 21 19 19 17 16 17 18 18 19 22 23 24
12 12 12 12 12 13 13 14 14 15 16 16 16 17 17 17 17 17 17 17 17 17 16 16 16 16 15 14 9 9 13 12 11 14 15 17 18 17 15 14 12 11 9 9 9 10 11 10 11 9 7 5 5 10 11 8 8 9 11 13 16 17 22 23 21 26 22 15 19 17 11 17 16 7 15 27 24 21 23 21 18 17 19 20 21 23 24 25
13 13 13 13 13 14 14 14 15 15 15 15 16 16 16 16 16 16 16 15 16 15 15 15 15 15 14 13 16 18 18 17 17 18 19 20 21 20 17 14 12 11 10 10 10 12 13 13 12 9 7 7 7 8 6 5 7 8 7 8 13 13 15 19 20 25 21 9 13 12 4 11 9 9 21 27 21 17 19 18 18 17 19 22 23 25 26 26
13 13 13 13 13 13 13 14 14 14 14 13 14 14 14 14 14 14 14 13 13 13 13 13 13 14 11 12 19 20 18 19 18 18 19 19 19 19 16 13 11 11 12 12 13 14 14 14 14 12 12 11 8 7 7 9 10 7 6 6 9 9 7 14 16 17 13 6 16 12 1 6 6 11 19 19 11 10 12 15 19 21 22 25 28 29 29 28
13 13 13 12 12 12 12 11 12 11 11 11 11 11 11 11 12 12 12 12 12 11 11 11 12 12 10 12 18 19 17 18 17 18 18 19 19 18 15 12 10 11 11 14 16 15 15 14 13 13 13 13 12 11 10 10 8 6 7 5 5 5 3 11 11 5 3 6 17 11 2 5 7 13 17 14 9 10 14 20 25 27 27 28 29 29 28 27
12 12 10 10 9 9 8 8 9 8 8 8 8 8 9 9 10 10 11 11 11 11 11 11 12 9 8 14 18 15 13 13 14 15 13 13 15 13 12 10 9 10 11 14 16 15 15 13 11 9 10 11 11 9 6 5 4 4 5 4 4 4 4 9 9 7 5 4 12 9 2 6 7 11 15 16 17 19 20 25 30 30 29 28 28 27 26 25
10 9 8 7 6 6 5 5 5 6 6 6 7 8 9 9 10 11 12 12 12 12 10 10 10 7 6 10 14 12 10 9 10 11 10 10 10 8 10 10 7 8 10 12 14 14 13 11 8 7 7 7 5 4 4 3 4 4 5 5 5 6 5 5 5 5 9 4 6 7 4 5 5 8 17 22 24 24 21 26 31 31 30 28 25 23 22 21
7 6 5 5 4 4 3 3 4 5 6 6 8 9 10 11 12 12 12 11 11 10 9 9 7 6 8 11 13 12 9 7 6 7 8 7 6 7 9 8 6 6 7 8 10 10 9 7 6 5 6 5 4 3 3 3 4 4 4 5 6 6 6 4 4 1 9 7 5 8 7 7 6 10 20 25 25 23 22 26 28 29 29 27 23 21 20 14
4 3 2 2 2 2 2 3 4 5 7 8 9 10 11 11 11 12 12 10 8 6 5 5 4 2 7 10 10 9 8 7 6 6 8 8 8 9 8 6 5 4 3 4 7 8 7 7 7 3 3 5 4 3 4 5 5 5 5 5 6 6 7 6 6 3 1 4 6 7 9 9 9 10 17 23 23 22 25 27 26 28 29 27 24 20 13 6
3 3 2 0 1 2 3 4 5 6 7 8 9 10 9 8 10 10 7 4 4 3 3 3 5 3 6 10 12 11 12 13 12 13 16 15 13 10 7 6 6 7 6 4 5 11 10 4 5 3 4 6 6 7 8 9 9 9 9 7 8 8 7 8 8 8 8 9 8 8 9 8 8 8 12 23 27 25 25 26 26 26 27 27 22 12 5 10
4 3 2 1 1 2 4 5 6 7 8 8 9 8 6 7 7 4 4 6 8 9 11 11 12 15 17 20 18 14 16 18 16 17 18 15 10 7 8 7 7 8 6 4 4 11 12 4 4 6 6 8 9 10 11 11 10 10 9 8 8 7 7 8 9 9 8 8 7 8 9 8 8 9 13 25 27 20 18 21 24 25 24 20 10 7 14 18
4 3 3 1 1 3 4 6 7 7 7 7 7 5 4 6 4 2 7 12 12 12 17 20 20 22 22 23 21 19 20 18 15 16 16 10 6 5 9 10 6 5 7 8 4 5 9 5 4 8 9 12 12 11 11 11 10 9 8 7 7 6 8 9 10 11 7 5 5 6 8 8 9 12 17 21 17 13 16 16 20 26 20 6 9 16 19 21
5 4 3 2 2 4 5 7 6 6 6 6 6 5 5 5 3 5 8 9 13 16 18 22 25 28 28 26 24 24 21 14 12 15 15 9 9 7 9 11 6 3 7 9 4 2 4 5 7 11 11 12 11 10 11 11 10 8 6 6 6 5 8 8 9 10 3 1 4 6 7 7 10 15 18 18 12 15 21 19 23 26 10 10 16 18 21 22
4 4 4 3 3 5 6 6 6 5 4 4 5 6 6 6 6 9 8 7 13 18 19 23 26 26 25 21 19 18 16 11 11 14 13 9 12 10 8 7 6 5 5 7 6 3 4 5 10 15 13 11 10 10 10 10 8 5 4 5 5 5 6 5 5 6 5 3 7 9 7 6 11 15 15 17 18 18 20 23 23 12 10 21 22 22 23 22
4 5 5 4 4 5 5 6 6 4 3 4 5 6 7 7 8 11 8 7 8 11 17 21 20 16 13 11 11 10 9 8 8 8 10 10 10 9 8 7 6 5 6 7 9 9 7 7 10 9 9 10 9 8 9 7 5 4 5 6 6 7 7 6 5 7 6 6 6 6 6 5 7 9 8 10 12 12 17 19 8 11 23 25 25 25 23 23
7 7 8 7 6 5 5 5 4 2 3 4 4 5 8 8 9 11 7 5 5 6 12 13 9 9 10 9 10 9 6 7 7 5 8 11 10 7 6 9 7 5 7 9 10 10 8 9 12 8 7 8 6 7 7 4 3 5 5 5 5 5 6 5 7 7 5 5 3 3 3 3 3 5 8 7 5 7 12 6 10 23 24 24 25 23 21 21
10 10 10 9 7 6 4 3 2 1 3 3 4 6 8 8 9 10 6 3 3 2 4 4 3 3 4 3 4 6 4 4 6 7 10 12 12 7 3 6 7 4 5 5 5 4 3 2 2 3 4 5 4 7 6 2 3 4 3 3 3 3 5 5 6 4 1 3 3 1 1 5 3 5 11 10 8 8 2 8 16 22 22 23 24 23 22 21
13 12 11 10 9 7 5 2 2 1 2 3 4 6 7 7 8 9 4 3 3 1 3 2 2 2 2 2 4 5 2 2 4 7 10 11 10 7 4 3 4 3 2 1 2 1 3 3 3 3 1 3 3 6 5 4 4 3 2 3 4 4 4 4 3 3 4 4 5 4 5 5 4 7 12 11 11 6 8 12 12 17 22 23 25 25 24 23
13 12 11 10 9 8 5 4 3 2 2 3 5 6 6 6 8 7 2 3 2 2 3 2 2 3 2 4 6 4 1 3 3 3 9 11 9 6 4 4 3 4 2 3 2 1 1 4 4 4 4 4 5 5 3 5 4 2 0 2 3 2 2 3 4 5 4 4 4 5 6 3 4 6 8 8 6 4 11 10 8 14 20 23 23 23 22 22
11 10 9 8 7 7 5 4 3 3 3 4 5 5 5 6 7 4 1 2 2 1 1 2 3 4 4 4 6 5 2 2 1 1 6 9 10 6 2 4 4 5 2 5 5 3 1 2 2 4 5 4 5 3 1 2 3 3 2 1 1 3 4 4 4 3 3 3 4 6 6 3 5 4 4 4 1 6 9 7 8 14 20 22 21 20 21 21
9 8 7 7 7 7 6 5 4 3 3 4 4 3 4 5 3 1 3 2 2 1 2 4 3 4 5 3 4 6 4 2 3 4 4 4 9 7 2 2 2 3 3 4 6 8 2 4 1 4 6 4 3 2 3 3 4 2 1 1 3 5 4 3 3 1 2 3 5 8 11 6 3 3 3 1 2 8 9 7 8 12 19 20 18 18 19 21
8 7 7 7 7 7 6 5 4 3 3 3 2 2 3 3 0 3 4 1 1 1 3 3 2 4 5 2 1 4 3 3 6 6 3 2 5 5 3 2 0 1 3 3 5 8 4 2 1 5 9 5 5 2 2 3 3 2 1 1 3 3 1 1 1 1 1 4 6 3 9 10 3 4 3 4 7 8 9 8 9 10 14 17 16 17 19 20
9 9 8 9 9 8 7 6 4 3 2 1 0 2 3 1 3 5 3 1 1 2 1 1 1 2 3 0 1 3 2 3 7 6 4 4 4 4 4 3 2 1 2 2 2 2 3 6 5 3 5 5 4 1 1 2 2 3 2 2 1 2 1 0 1 1 2 5 4 4 2 5 5 5 3 5 8 8 9 10 12 13 14 16 16 17 19 20
11 11 11 12 12 10 9 8 6 4 2 1 2 3 3 2 4 3 4 3 1 1 2 2 1 0 0 0 1 2 1 2 7 6 4 4 3 4 6 7 5 3 3 1 2 2 2 3 5 4 1 6 7 3 1 1 3 5 4 4 3 1 3 4 3 3 3 4 3 4 4 1 4 5 1 7 8 11 16 17 17 17 17 17 17 18 20 20
14 14 14 15 14 13 12 10 8 6 4 5 4 3 2 7 3 1 2 4 2 1 3 2 0 1 1 2 1 2 1 1 4 4 2 3 2 3 5 7 8 5 2 2 2 3 3 4 3 3 1 7 9 3 1 2 4 6 4 4 4 2 3 4 3 4 4 3 3 2 1 1 2 2 4 10 12 16 20 21 20 18 17 18 17 17 18 18
16 16 17 17 17 16 14 11 10 9 8 8 5 2 6 7 2 1 4 5 4 3 2 2 2 1 3 4 4 3 5 3 1 3 2 3 3 3 3 4 7 6 2 2 2 2 4 4 0 1 1 4 4 3 3 3 1 3 1 2 2 3 3 3 5 5 5 4 4 2 3 3 2 4 8 10 12 15 17 18 19 17 16 16 16 16 15 15
18 18 19 19 18 16 15 14 13 12 12 10 4 6 8 5 3 3 3 3 5 4 2 1 2 2 4 3 5 7 5 2 1 2 2 4 4 5 5 2 2 8 6 2 2 1 1 2 0 1 3 3 1 5 5 3 1 1 2 1 3 1 2 2 6 5 4 5 6 5 5 4 3 3 7 9 8 9 10 12 14 14 15 15 14 13 11 11
18 19 21 22 19 16 16 16 15 15 16 10 5 8 5 5 8 7 3 1 2 2 3 3 2 3 4 2 3 4 3 1 2 3 1 3 3 5 6 1 5 2 2 2 1 0 1 2 1 2 1 2 1 3 4 3 2 2 1 2 2 2 2 1 3 3 4 7 6 7 9 6 4 2 4 7 7 7 6 7 10 12 13 12 11 9 8 8
19 19 22 24 21 17 17 18 17 19 16 9 9 10 4 5 11 10 7 4 2 3 5 5 3 2 4 4 4 1 4 2 3 4 0 2 2 3 1 1 6 7 6 4 1 1 2 1 2 1 1 0 1 2 2 3 4 4 2 1 2 0 1 1 2 2 5 7 5 6 9 7 5 5 3 6 8 7 6 6 7 8 9 10 8 6 5 5
20 16 17 20 18 16 19 20 21 22 15 8 9 10 5 7 12 12 10 5 3 3 5 6 4 4 5 4 5 2 4 4 3 3 1 2 3 4 5 2 3 7 9 6 1 1 2 1 2 0 1 2 2 1 1 1 3 4 1 3 2 2 3 3 2 1 3 6 5 6 7 6 4 2 1 6 9 8 7 6 5 5 8 8 6 5 4 3
15 8 8 10 9 14 19 21 22 20 12 8 9 8 4 4 9 14 12 7 3 2 3 5 5 5 7 6 6 5 3 4 3 2 1 1 2 1 4 3 2 2 6 6 2 1 2 1 2 1 1 2 0 2 3 3 1 3 1 1 0 1 1 1 1 2 2 4 5 6 7 5 2 4 5 7 7 6 7 6 5 7 8 6 4 4 3 2
8 4 4 5 8 15 22 20 17 13 7 7 8 7 7 5 4 6 7 8 7 3 2 4 4 5 5 5 6 4 2 2 2 3 3 2 3 1 2 3 2 1 2 3 1 0 0 1 1 1 2 3 3 3 2 3 2 3 3 4 4 3 2 3 5 4 3 4 4 6 8 4 2 4 6 7 5 5 7 7 6 7 6 3 1 1 2 3
8 3 3 8 11 19 24 15 9 9 6 8 6 5 7 7 4 4 4 6 7 5 3 3 4 5 5 5 5 2 1 1 2 3 3 2 4 2 2 1 1 3 2 1 1 1 2 2 1 3 5 7 8 7 6 7 7 5 4 3 2 2 2 4 7 4 2 4 4 5 7 2 2 4 4 6 5 7 7 7 7 5 3 1 2 3 4 5
9 4 3 8 14 24 21 8 6 8 6 8 7 7 8 6 3 4 4 4 4 3 3 2 4 6 6 5 5 5 4 3 4 6 4 3 2 2 3 2 2 3 1 1 1 1 3 1 2 3 5 6 8 7 3 3 4 3 1 1 2 0 2 3 5 3 3 4 5 6 6 2 1 3 3 7 7 6 5 5 7 7 6 4 3 3 3 4
8 5 4 8 18 26 17 5 6 8 7 7 7 9 11 10 7 5 5 6 5 3 3 3 5 6 6 5 5 6 5 4 5 5 4 3 1 4 5 3 2 1 2 0 1 0 0 1 1 1 3 4 5 5 2 4 3 2 0 1 1 2 4 4 3 2 2 5 7 6 4 1 1 3 1 3 5 5 5 4 5 9 8 6 5 3 3 3
5 4 4 11 23 25 14 5 3 5 8 9 9 10 10 10 11 12 9 7 8 7 4 3 2 2 3 4 4 4 4 3 3 2 1 1 1 4 5 6 4 3 4 4 3 2 0 1 1 2 4 6 5 4 1 1 2 1 2 3 3 5 6 4 3 3 5 5 4 3 4 3 4 9 11 8 5 1 5 6 7 8 8 6 5 4 4 4
3 3 3 9 20 23 16 10 5 3 4 7 8 9 10 8 9 13 12 10 11 12 7 4 1 1 2 3 3 4 5 4 3 2 1 2 1 2 4 7 7 6 6 5 5 4 1 2 2 4 6 6 7 7 5 4 4 4 5 6 7 7 6 4 3 6 6 6 4 5 8 9 10 12 13 9 8 5 3 7 7 6 6 5 4 4 4 5
3 2 4 7 11 14 14 12 9 4 3 4 3 5 9 10 7 9 11 9 9 10 8 6 5 4 3 4 4 5 6 6 5 5 5 4 2 2 4 5 5 6 6 4 4 4 1 2 4 7 8 8 8 8 8 7 6 5 5 7 9 8 7 6 8 8 5 5 7 8 10 12 11 10 11 10 9 6 1 5 5 3 3 4 3 3 4 5
4 3 4 8 6 7 8 10 10 6 5 6 2 2 5 8 7 6 8 7 4 4 5 5 7 8 7 6 4 4 4 4 4 4 4 3 2 3 2 3 4 5 4 3 3 4 2 3 5 5 6 8 7 6 6 5 4 5 6 8 10 11 12 12 11 9 6 7 9 9 11 13 11 11 14 11 5 1 4 5 3 2 2 2 1 2 4 6
6 5 4 5 3 2 4 8 9 8 7 6 3 3 3 5 6 3 3 4 2 3 3 4 4 4 3 3 3 2 2 2 1 1 1 2 2 2 1 0 2 4 3 2 2 2 1 2 2 1 3 6 7 6 5 4 5 7 9 10 11 14 15 13 12 11 10 11 11 12 14 16 14 14 12 3 5 6 5 4 2 2 2 3 4 5 6 7
5 4 3 2 3 0 2 4 8 7 7 7 6 7 5 5 7 4 1 2 3 3 5 5 2 3 4 3 4 3 3 3 3 1 3 3 1 1 1 1 1 2 2 1 1 1 1 1 1 2 1 4 7 6 3 3 5 7 8 11 14 15 13 12 12 11 11 12 13 14 16 15 11 7 1 6 8 7 6 6 5 5 5 6 6 7 8 9
7 5 1 2 2 3 2 2 5 5 6 7 8 8 6 7 10 7 3 2 2 1 2 3 4 4 3 3 4 2 2 6 5 2 4 3 1 0 0 1 2 2 1 1 0 1 1 1 1 1 1 5 8 6 1 1 3 6 11 17 18 14 11 12 11 10 10 12 13 13 11 8 2 4 7 8 7 7 7 7 8 7 6 6 7 9 11 11
8 7 4 1 2 4 5 3 4 5 5 7 9 9 8 8 8 7 4 1 3 1 1 4 5 4 2 3 3 4 7 9 8 5 4 3 2 1 1 1 1 2 2 2 1 1 2 2 1 1 2 5 7 3 4 3 3 8 11 13 14 12 11 11 10 10 12 11 9 8 5 3 2 3 4 5 6 6 7 8 9 10 10 10 10 12 13 13
Wind_Direction
190 187 185 184 179 182 182 182 185 188 193 198 207 216 226 232 250 262 261 274 278 286 292 297 302 306 311 311 316 317 317 318 315 310 306 310 302 281 280 314 344 343 330 308 285 268 254 268 239 227 248 255 253 228 236 236 215 225 220 221 245 245 257 321 333 326 335 334 332 324 327 325 323 329 298 283 266 269 280 278 276 273 266 268 278 277 269 275
214 210 211 211 207 206 202 206 204 204 206 210 221 228 236 241 254 259 265 275 277 284 288 293 299 302 308 310 314 316 318 318 312 310 310 312 301 193 135 19 347 338 322 308 296 263 215 238 228 222 231 241 241 217 228 224 199 214 230 238 246 250 276 304 307 310 325 316 315 315 319 322 320 318 305 285 279 286 287 282 282 280 276 277 280 270 261 270
232 231 233 233 236 236 235 241 238 241 240 243 250 249 254 256 260 264 270 274 279 285 287 293 298 301 305 307 312 315 320 319 315 317 332 75 124 109 4 327 336 334 312 297 287 220 207 247 239 224 235 243 237 210 212 205 194 215 219 240 246 253 281 295 303 309 308 306 316 318 320 316 303 301 291 276 283 281 274 278 283 280 280 286 296 288 268 271
241 242 244 243 248 250 252 256 256 260 262 263 267 267 270 272 272 275 276 277 283 285 288 293 295 299 301 303 308 313 320 319 312 295 137 131 116 349 317 310 320 327 302 282 256 211 226 252 241 234 245 255 251 231 208 200 198 207 204 225 259 278 297 295 300 306 307 315 332 325 316 303 299 301 282 275 286 266 260 271 276 278 287 294 300 301 288 283
246 247 249 250 252 255 257 260 260 264 266 267 271 271 273 275 275 278 277 280 283 284 288 290 291 295 296 300 304 311 324 327 355 148 170 179 312 314 306 300 306 311 288 271 243 213 224 237 237 244 245 260 264 249 225 217 216 224 237 249 260 275 283 282 291 301 311 317 314 308 295 290 300 301 278 265 259 257 268 275 277 280 287 290 291 290 287 284
250 252 255 257 259 261 261 263 266 268 270 272 274 274 275 275 276 278 278 281 282 284 287 288 290 292 294 298 300 306 312 285 293 304 266 284 302 304 299 296 300 298 270 249 231 219 227 230 229 239 239 245 260 254 252 241 232 232 246 253 264 274 278 283 291 296 305 309 297 286 280 289 296 289 279 267 258 267 274 277 280 282 284 287 288 286 283 279
252 254 256 259 260 262 263 266 268 269 272 273 274 274 276 276 277 278 279 281 282 284 286 288 291 291 295 297 298 303 280 264 286 288 280 291 296 296 296 295 297 282 244 234 222 215 236 237 230 245 252 251 256 256 267 270 263 258 249 261 273 278 279 285 291 292 294 291 283 280 280 283 281 282 283 272 267 272 276 277 277 280 283 285 285 283 282 280
251 252 255 256 258 261 263 266 267 269 271 271 273 274 275 277 278 280 282 283 284 286 287 289 291 291 295 295 300 302 271 270 287 286 284 290 289 293 294 289 288 269 244 236 222 214 239 248 248 258 261 260 269 277 294 300 280 265 265 275 275 274 281 289 296 295 289 281 276 273 271 270 272 281 282 275 275 275 277 280 280 278 279 280 280 280 279 279
252 254 256 258 260 263 265 267 269 271 273 274 276 277 279 281 282 284 284 285 286 287 288 289 289 291 292 293 299 293 273 278 284 279 279 280 280 286 285 282 280 268 250 233 218 220 239 251 259 279 299 290 290 294 302 301 263 264 291 303 300 295 296 295 292 288 281 274 268 259 261 268 275 284 279 272 275 277 276 277 281 280 277 276 279 280 279 278
258 260 263 266 268 270 272 275 276 278 280 282 283 285 286 287 288 288 287 288 288 288 289 288 288 289 288 288 285 269 280 284 277 276 278 277 281 284 282 278 273 267 254 233 220 224 242 255 266 294 312 301 295 289 288 282 271 303 320 313 303 297 292 284 277 274 269 265 258 244 254 267 275 289 278 276 281 280 274 271 277 278 272 275 280 281 282 280
265 267 270 273 276 279 280 282 284 286 287 288 289 290 290 291 291 291 290 290 289 289 290 288 288 286 284 282 257 250 277 277 271 280 282 283 285 286 282 274 273 270 251 234 230 233 242 257 266 282 296 296 303 289 282 277 282 316 332 312 293 288 284 276 269 266 262 256 243 232 248 271 278 266 254 274 289 285 276 273 274 268 266 274 279 280 279 277
266 269 272 275 278 281 283 286 288 288 290 291 292 292 293 293 293 293 293 292 291 291 291 289 289 286 284 275 256 260 275 273 273 279 280 283 285 285 282 274 270 261 241 229 232 241 241 248 255 255 265 287 314 299 289 300 304 314 321 301 286 283 277 270 263 257 255 239 208 200 246 274 269 245 256 274 289 290 284 281 279 271 268 273 279 280 279 278
265 268 271 276 279 281 284 286 287 288 290 290 291 292 293 294 294 295 294 294 294 293 293 293 291 288 281 269 269 275 280 276 277 277 277 280 280 281 280 274 262 251 242 233 231 239 239 242 248 250 263 277 288 285 289 301 300 285 262 263 283 292 277 272 266 248 247 192 159 150 181 258 260 265 277 290 297 306 307 297 289 280 275 277 279 280 280 280
266 269 274 277 280 283 284 284 285 286 287 288 290 291 293 294 295 296 295 295 295 294 295 292 292 290 271 266 279 283 279 279 277 273 275 276 274 277 278 274 261 249 243 239 240 243 244 246 250 254 261 264 266 278 292 294 284 269 264 248 261 284 266 277 275 198 174 149 149 143 233 244 272 278 285 302 315 325 316 298 289 283 280 279 279 280 282 284
265 270 274 276 278 280 280 280 282 282 285 288 290 293 296 297 297 298 297 296 295 293 292 290 287 282 268 276 283 281 277 277 271 271 275 271 271 276 276 275 265 253 243 241 244 247 250 254 254 255 260 258 256 271 290 284 265 252 264 258 224 244 256 279 276 178 159 184 161 149 230 241 250 271 288 302 308 311 304 292 286 283 282 280 281 284 287 289
262 268 270 271 271 270 270 273 278 284 291 295 300 303 303 303 303 301 298 295 293 290 288 284 279 268 261 276 278 278 279 273 271 276 269 262 267 267 274 284 280 258 244 242 247 247 250 252 248 250 258 262 241 245 277 276 270 238 231 258 239 246 259 272 282 176 144 144 191 187 224 250 240 280 292 292 293 293 287 282 280 281 281 282 285 288 291 294
257 262 266 267 262 260 263 269 286 297 305 310 310 311 313 311 308 303 298 294 289 286 279 269 269 272 262 266 273 275 275 272 279 275 257 256 259 260 278 285 272 260 247 244 247 237 235 228 217 237 239 245 249 248 278 262 255 247 231 253 249 262 286 284 308 111 134 142 211 219 227 244 246 268 275 277 281 281 274 273 275 280 283 287 290 293 299 304
244 245 250 262 273 291 295 302 308 310 316 318 318 319 320 317 313 304 295 288 281 277 272 241 214 266 262 262 275 278 273 272 275 278 271 266 267 272 278 263 241 234 194 214 231 205 197 205 196 219 231 222 242 226 235 241 241 266 268 278 284 286 298 291 294 312 227 223 240 240 238 248 256 258 269 279 282 277 272 274 278 284 288 291 294 299 307 341
215 201 195 192 10 340 329 325 320 319 322 322 324 324 325 327 321 312 303 287 265 261 288 216 195 249 288 287 292 287 280 278 276 279 277 273 272 265 243 227 206 185 173 177 202 185 173 187 185 195 237 220 225 214 222 241 245 264 270 275 286 281 286 287 280 287 293 282 272 270 267 271 282 281 283 284 279 272 272 278 282 283 284 289 295 309 13 63
209 193 189 164 37 345 335 331 326 326 326 328 334 337 346 350 332 331 356 312 281 275 287 280 260 264 276 284 291 291 282 281 280 275 276 273 266 240 207 195 185 190 204 185 177 182 173 173 197 201 227 229 235 235 238 251 252 264 271 268 274 276 281 284 282 286 293 290 282 284 288 292 295 290 277 274 275 275 272 277 280 278 279 288 311 40 72 76
226 215 211 229 298 326 325 324 326 330 333 337 352 9 26 6 334 308 330 309 291 280 276 278 275 269 269 273 275 276 275 279 278 269 271 262 225 206 186 178 181 196 221 212 173 164 177 194 220 211 229 238 245 255 262 271 273 279 283 279 281 280 279 281 284 287 288 289 285 289 294 296 296 286 275 273 278 276 268 267 272 274 279 312 60 75 80 81
235 236 239 258 296 318 318 320 322 329 339 346 11 39 35 9 340 311 318 298 289 286 274 273 272 265 267 268 262 260 260 263 261 253 258 238 193 196 185 177 195 202 209 211 168 110 202 229 236 227 236 245 251 260 266 272 273 275 280 286 284 276 283 281 276 282 297 335 293 299 295 293 289 279 277 280 273 267 266 258 259 269 288 63 75 81 85 81
237 240 248 262 296 310 311 317 321 327 345 0 24 38 23 7 349 329 317 271 283 290 276 269 263 258 262 263 251 247 245 246 253 246 244 220 186 199 204 187 217 227 213 208 189 196 215 216 230 230 234 247 256 258 260 264 263 253 253 273 274 271 281 275 277 308 344 329 297 299 294 287 280 273 277 277 265 264 264 255 257 268 78 83 83 85 83 77
243 254 268 281 298 304 301 309 319 332 356 16 29 30 16 360 346 341 323 261 271 279 261 254 250 252 256 247 238 244 243 244 259 246 221 203 182 191 216 220 231 238 234 222 213 224 233 245 255 241 226 240 253 260 260 260 265 259 241 247 259 266 268 270 309 336 335 313 302 310 302 269 260 265 281 283 265 254 251 251 256 89 93 92 88 85 81 77
259 270 282 290 292 293 293 303 316 352 6 9 22 17 6 353 345 349 333 266 260 250 241 238 236 254 256 246 246 248 248 242 245 222 184 191 192 183 212 222 223 238 240 237 233 237 246 256 261 250 228 242 250 255 260 260 285 279 258 258 270 285 292 304 334 346 337 307 300 23 343 266 272 290 288 292 264 240 250 255 82 87 90 88 86 82 80 80
263 269 280 282 280 285 293 306 311 11 10 357 7 3 354 349 346 349 345 272 267 221 204 211 210 245 244 240 226 211 226 229 213 196 178 192 204 202 226 212 207 244 256 254 258 255 250 240 263 249 235 253 257 259 263 262 279 270 266 307 333 353 340 335 346 344 294 261 256 68 310 260 293 284 268 267 244 240 288 63 77 82 81 78 76 75 75 76
258 262 269 270 271 280 283 258 245 286 341 321 330 343 343 343 343 349 354 260 265 132 124 160 177 195 209 183 166 170 198 165 170 195 197 206 208 208 245 202 188 240 242 298 329 289 213 178 84 60 221 232 236 253 245 190 211 246 271 343 14 28 349 330 330 278 251 276 271 230 223 257 276 254 251 247 237 228 77 74 74 77 79 74 70 69 68 67
250 253 259 261 264 272 268 246 252 267 269 287 309 325 335 330 331 348 351 273 290 106 127 150 161 193 197 180 180 178 177 159 160 205 205 207 189 177 233 241 263 285 202 168 208 307 203 181 165 151 176 211 222 241 231 174 185 221 235 15 32 34 304 283 271 260 269 306 284 211 191 233 271 251 239 235 228 122 89 86 80 78 78 75 72 72 69 65
240 243 247 249 254 260 256 254 265 262 265 290 301 310 324 317 325 351 238 265 332 37 169 152 146 169 157 159 190 199 196 175 183 192 190 196 184 170 224 248 287 310 248 195 213 259 9 123 170 170 176 212 220 243 341 133 170 197 195 17 336 255 254 251 249 267 293 292 258 209 177 185 280 257 206 239 251 104 101 93 84 77 72 70 71 75 77 76
234 237 236 236 244 250 253 257 260 259 265 283 290 316 333 317 327 303 222 232 342 26 132 149 138 150 170 189 198 195 196 160 112 132 146 172 189 198 257 277 308 313 264 243 246 253 236 87 61 219 218 208 142 98 34 92 142 164 178 322 300 262 239 227 224 255 331 273 252 219 189 179 298 272 199 282 70 123 126 117 103 82 74 74 70 70 77 82
236 238 238 243 246 247 252 256 257 255 246 263 297 359 346 325 298 229 234 272 323 183 129 143 135 156 191 220 184 189 199 164 143 153 163 134 177 208 262 296 19 330 287 281 261 253 217 152 210 223 219 190 111 110 23 65 112 126 130 30 330 293 217 138 145 103 149 259 284 249 185 186 216 258 236 43 58 106 124 125 118 93 82 84 82 78 77 79
248 251 253 254 253 250 250 251 251 249 243 261 190 82 39 334 225 223 224 31 355 200 146 111 139 176 204 214 154 175 177 175 169 182 204 166 166 198 206 201 161 158 263 238 253 261 202 206 197 171 208 187 134 114 17 22 94 138 156 158 324 317 299 258 205 181 210 233 278 21 94 196 223 260 281 55 51 66 92 105 111 109 103 96 91 89 85 81
248 252 254 254 255 252 246 246 245 240 237 207 159 100 70 237 232 210 196 216 267 135 81 48 41 294 171 176 191 152 94 181 170 194 226 176 182 217 201 206 207 207 231 258 322 311 278 237 176 134 297 194 172 157 186 240 169 168 174 166 178 280 296 272 254 251 255 243 270 10 22 274 238 268 355 93 83 73 81 90 100 107 108 101 95 91 88 85
247 247 248 249 252 250 246 245 240 235 219 184 159 111 194 228 232 75 210 238 265 140 103 78 87 272 242 236 247 135 171 234 159 169 214 158 186 235 208 213 217 212 221 260 282 227 246 294 173 155 253 184 182 194 175 134 157 193 202 154 165 194 233 261 269 262 267 276 294 343 21 240 218 210 111 108 105 96 96 101 104 104 105 103 100 96 92 87
255 253 249 246 246 246 245 240 230 225 205 177 157 185 221 227 215 197 236 248 265 252 142 106 128 215 255 251 268 232 192 214 166 134 191 199 208 226 212 222 211 190 168 220 234 192 222 265 62 55 344 158 178 321 12 59 122 222 320 73 167 199 204 252 267 262 277 295 286 251 224 253 233 147 124 112 105 102 106 110 109 109 111 109 104 99 93 86
264 262 258 254 248 244 240 231 221 214 198 174 172 231 225 226 212 204 225 226 248 259 230 197 165 204 259 245 252 244 193 179 192 132 210 224 233 242 229 271 197 179 171 187 228 68 207 251 70 34 3 65 57 342 1 12 342 26 51 114 235 234 143 243 270 276 287 279 267 253 252 268 258 164 116 106 102 101 106 111 113 117 115 109 105 102 95 84
265 264 263 260 255 246 235 224 214 205 193 177 211 233 215 220 225 232 265 305 300 289 254 248 185 184 250 240 234 224 151 98 199 171 236 221 229 253 225 277 30 137 158 73 190 156 122 244 230 131 49 31 26 345 343 337 57 91 178 228 273 350 55 200 262 272 260 257 255 254 261 269 261 232 118 112 111 109 117 117 119 122 115 110 107 102 90 77
274 270 266 265 261 247 227 218 209 198 189 189 232 237 223 223 220 223 243 250 245 240 235 243 218 204 255 261 276 246 125 122 196 170 176 224 225 9 53 33 27 25 20 46 98 359 47 251 271 99 118 248 41 19 335 337 64 117 200 336 53 329 286 245 219 231 243 252 253 243 253 259 241 225 175 150 142 134 138 127 116 115 111 114 117 106 89 74
279 277 273 271 264 239 219 211 200 192 191 206 232 231 227 234 232 235 250 257 236 221 230 241 235 243 258 256 284 300 150 174 210 182 143 231 241 31 41 15 30 24 15 38 117 342 38 200 249 235 88 52 34 58 176 289 34 91 68 359 66 168 227 219 191 198 241 254 258 244 246 251 248 263 122 140 142 138 136 121 105 107 114 124 130 123 112 86
268 266 271 267 246 218 205 196 191 190 196 217 226 227 223 232 235 237 243 240 210 189 225 241 239 242 258 260 265 270 207 196 219 227 223 219 236 36 41 14 40 44 20 39 86 4 34 196 223 242 353 20 13 187 184 210 152 102 81 319 222 160 253 260 231 173 200 249 259 253 251 248 302 5 58 102 114 118 124 122 124 132 133 135 133 123 116 81
225 231 258 222 201 195 183 178 188 195 205 229 233 234 231 240 236 216 217 216 220 235 235 244 253 250 259 263 256 259 243 222 212 238 251 216 223 255 45 14 10 109 57 48 72 48 37 216 249 305 293 261 235 230 259 276 234 165 187 205 210 215 223 269 258 211 190 226 233 251 260 253 8 19 64 86 78 84 103 117 135 140 137 139 137 357 340 345
183 208 228 192 184 178 170 170 197 203 212 228 229 232 229 237 236 190 175 191 213 233 233 235 253 252 251 254 258 266 259 241 201 231 254 214 227 250 130 151 34 72 87 73 113 85 83 115 215 268 259 260 268 266 267 275 262 229 201 191 210 231 202 241 258 256 246 233 223 247 254 242 28 2 51 80 88 101 116 137 146 151 167 216 277 306 314 317
193 198 186 191 180 170 168 185 213 201 225 234 232 246 241 235 228 205 191 182 194 214 213 219 234 236 238 240 246 244 233 223 210 223 240 227 227 44 83 149 122 79 63 217 190 79 64 99 207 250 260 269 277 276 283 299 271 231 193 84 98 265 271 259 260 282 289 248 240 251 247 220 288 305 80 109 124 129 146 162 159 167 183 207 245 273 287 299
205 194 187 194 177 171 178 217 205 202 229 228 226 240 241 239 236 231 216 195 198 207 204 216 229 231 235 238 244 241 234 233 222 220 231 235 172 66 57 56 98 77 26 39 205 138 75 213 171 250 290 292 287 287 324 17 29 81 56 350 149 232 288 298 271 261 244 226 229 247 258 227 239 272 251 137 149 146 153 179 193 188 186 196 218 245 278 284
197 192 191 187 180 183 203 238 213 220 221 216 229 233 234 242 235 233 238 225 218 222 224 231 235 243 250 252 257 248 239 251 252 226 182 186 80 62 47 42 59 79 75 81 70 60 167 229 133 190 255 263 269 275 260 39 20 22 264 274 269 259 267 287 291 268 261 249 238 257 276 292 299 294 295 300 309 182 169 198 213 195 189 197 204 224 252 254
197 204 183 181 189 203 227 241 246 284 226 211 229 228 225 237 235 227 228 235 237 233 236 251 246 23 300 253 248 248 238 235 235 238 214 169 123 84 70 63 71 97 104 93 75 74 123 249 208 215 236 247 257 272 290 303 293 284 286 288 286 273 260 262 257 254 270 290 284 265 269 280 288 291 294 305 318 312 212 198 200 186 191 205 209 229 251 265
208 233 178 169 197 217 233 237 233 250 265 241 235 227 223 225 231 218 205 212 236 233 231 231 203 199 228 222 231 243 236 232 225 229 240 224 160 120 127 107 102 120 122 115 108 104 120 235 226 228 237 245 253 268 289 298 285 282 292 284 282 284 276 258 248 258 297 307 272 263 272 280 283 290 299 307 313 312 191 170 189 197 205 218 224 245 274 294
216 285 186 162 183 219 224 225 217 214 254 268 279 291 246 224 224 218 194 191 214 229 227 221 210 215 224 221 224 234 233 243 235 223 234 233 108 99 140 132 129 142 132 132 150 126 125 240 249 250 251 259 270 284 301 312 311 299 284 275 279 278 269 261 260 268 279 269 268 279 283 281 284 288 293 304 325 43 126 143 175 188 185 200 239 320 331 330
232 288 256 180 191 222 202 205 200 202 235 252 256 274 277 249 241 228 145 155 196 233 229 228 218 205 209 204 178 191 224 230 225 182 82 55 60 98 154 148 136 153 136 124 183 155 144 242 265 293 282 278 277 282 299 308 295 283 275 272 270 264 263 267 272 273 267 265 275 283 280 277 279 281 285 314 87 103 105 99 103 104 79 51 31 9 348 334
249 274 275 241 246 230 89 187 191 199 226 229 236 245 244 254 257 252 117 156 191 212 216 219 200 103 85 100 129 176 214 153 145 159 106 95 37 78 158 286 131 145 119 69 297 282 250 210 94 85 319 284 269 263 254 239 258 273 278 272 264 261 267 271 270 271 271 271 270 267 268 271 275 281 299 97 95 89 78 64 51 47 42 35 17 350 331 321
251 240 182 359 266 192 134 163 187 198 222 218 227 239 232 239 247 251 276 238 188 207 207 173 147 114 107 131 145 179 171 130 132 135 119 128 198 47 356 352 102 123 135 131 290 301 231 217 104 95 255 265 267 266 182 135 285 277 266 262 258 257 259 258 257 257 257 263 267 266 266 267 274 90 102 99 78 62 53 39 25 15 8 359 337 319 315 316
248 235 217 343 309 202 174 166 189 199 217 220 223 232 236 242 240 232 237 201 120 111 99 123 124 125 162 185 154 120 116 121 127 132 128 142 177 196 272 290 131 155 169 165 184 197 175 158 169 213 241 257 259 237 115 80 302 267 255 256 256 253 248 248 251 251 249 254 261 262 255 225 165 105 104 90 64 48 32 14 356 342 331 323 313 304 306 312